COSMOS 2129

Satellite information

Favourite Embed

Satellite Type and Status

PAYLOADIN ORBIT

Key statistics

Satellite COSMOS 2129 at a glance.

Uptime

12565

Days in orbit

Revolutions

≈ 12.5

Per day

Orbit

LEO

Low Earth Orbit

Inclination

74.0

Latest

Satellite identification and parameters

Extended collection of information and parameters for COSMOS 2129.

Object identification

Identified? True

Debris? False

Object name: COSMOS 2129

International designator: 1991-009E

Object number (NORAD): 21104

Object ID (CCSDS): 21104

Country: COMMONWEALTH OF INDEPENDENT STATES (CIS)

Current information (Y/N): Y

RCS size: MEDIUM

Orbital parameters

Period: 114.857 minutes

Inclination: 74.0317 deg

SMA: 7827.041 km

Apoapsis: 1468.274 km

Periapsis: 1429.538 km

RAAN: 300.2059 deg

Eccentricy: 0.0024745

Argument of periapsis: 172.3773 deg

Mean anomaly: 301.9847 deg

Mean motion: 12.53736732 rev/day

Mean motion (dot): -0.00000026 rev/day2

B* drag term: -0.000063612 1/REarth

Two-line elements (TLE)

Creation date: July 8, 2025, 2:27 a.m.

Reference frame: TEME

Reference center: EARTH

Epoch: July 7, 2025, 6:33 p.m. UTC

TLE line 0: 0 COSMOS 2129

TLE line 1: 1 21104U 91009E 25188.77337464 -.00000026 00000-0 -63612-4 0 9994

TLE line 2: 2 21104 74.0317 300.2059 0024745 172.3773 301.9847 12.53736732574358

Live tracking on map

Real-time ground track for satellite COSMOS 2129.

In-orbit conjunctions

There are no conjunctions computed for COSMOS 2129, at the moment. Check back to stay up to date, as we update our databases every day.

Go to all conjunctions

Associated space launch

Military communications satellites

COSMOS 2129 was lifted into orbit during the mission ‘Kosmos-3M | Strela-1M 353-360’, on board a Kosmos-3M space rocket.

The launch took place on Feb. 12, 1991, 2:44 a.m. from 133/3 (133L).

For more information about the launch, click the button.

Launch to space Kosmos-3M | Strela-1M 353-360
Kosmos-3M | Strela-1M 353-360

Agency: N/A

Status: Launch Successful

Launch date: Feb. 12, 1991, 2:44 a.m. UTC

Rocket: Kosmos-3M

Launch pad: 133/3 (133L)

Location: Plesetsk Cosmodrome, Russian Federation

...

Latest news about this satellite

There are no fresh news available about this satellite. Check back as we update our databases every day.


Newsletter sign-up

Weekly statistics, charts and insights to help you stay on top of the space industry.